Radiation Dose at Monitoring Post of Fukushima Daini Nuclear Power Station
Date,Time,MP-1(microSv/h),MP-2(microSv/h),MP-3(microSv/h),MP-4(microSv/h),MP-5(microSv/h),MP-6(microSv/h),MP-7(microSv/h),Wind Direction,Wind Velocity(m/s),Rain
2022/04/18,00:00,0.154,0.140,0.223,0.216,0.221,0.122,0.079,south-southwest,4.8,No
2022/04/18,00:10,0.154,0.139,0.224,0.215,0.220,0.123,0.078,southwest,4.8,No
2022/04/18,00:20,0.155,0.139,0.224,0.215,0.221,0.123,0.078,southwest,4.3,No
2022/04/18,00:30,0.154,0.141,0.225,0.216,0.222,0.122,0.077,southwest,4.4,No
2022/04/18,00:40,0.155,0.138,0.223,0.215,0.221,0.122,0.078,southwest,5.5,No
2022/04/18,00:50,0.155,0.140,0.224,0.216,0.220,0.122,0.079,south-southwest,2.9,No
2022/04/18,01:00,0.154,0.140,0.223,0.215,0.221,0.123,0.078,south-southwest,3.5,No
2022/04/18,01:10,0.154,0.140,0.223,0.214,0.219,0.122,0.078,south,4.1,No
2022/04/18,01:20,0.154,0.140,0.224,0.216,0.221,0.123,0.078,south-southwest,4.0,No
2022/04/18,01:30,0.154,0.139,0.223,0.216,0.220,0.123,0.078,south,3.2,No
2022/04/18,01:40,0.154,0.141,0.222,0.216,0.220,0.122,0.077,south-southwest,3.8,No
2022/04/18,01:50,0.154,0.140,0.224,0.215,0.221,0.121,0.078,south-southwest,3.3,No
2022/04/18,02:00,0.155,0.140,0.222,0.216,0.221,0.122,0.078,south-southwest,3.0,No
2022/04/18,02:10,0.153,0.140,0.222,0.215,0.220,0.122,0.077,south-southwest,3.5,No
2022/04/18,02:20,0.154,0.140,0.224,0.217,0.221,0.122,0.077,south,3.8,No
2022/04/18,02:30,0.154,0.140,0.223,0.216,0.219,0.122,0.078,south,4.4,No
2022/04/18,02:40,0.154,0.140,0.223,0.215,0.219,0.122,0.079,south,4.1,No
2022/04/18,02:50,0.155,0.141,0.223,0.216,0.220,0.121,0.077,south,4.0,No
2022/04/18,03:00,0.153,0.140,0.225,0.216,0.219,0.122,0.078,south-southwest,3.0,No
2022/04/18,03:10,0.154,0.140,0.223,0.216,0.220,0.122,0.078,south-southwest,2.7,No
2022/04/18,03:20,0.154,0.139,0.224,0.216,0.219,0.122,0.078,south-southwest,3.7,No
2022/04/18,03:30,0.153,0.140,0.224,0.215,0.219,0.122,0.079,south-southwest,3.0,No
2022/04/18,03:40,0.153,0.140,0.224,0.216,0.221,0.121,0.077,south-southwest,2.9,No
2022/04/18,03:50,0.154,0.140,0.223,0.216,0.219,0.122,0.078,south-southwest,2.5,No
2022/04/18,04:00,0.154,0.140,0.223,0.216,0.220,0.122,0.078,south-southwest,3.5,No
2022/04/18,04:10,0.153,0.140,0.224,0.215,0.219,0.122,0.078,south-southwest,3.5,No
2022/04/18,04:20,0.155,0.140,0.224,0.216,0.220,0.122,0.077,south-southwest,4.1,No
2022/04/18,04:30,0.154,0.139,0.223,0.217,0.219,0.122,0.078,south-southwest,3.3,No
2022/04/18,04:40,0.155,0.139,0.224,0.216,0.221,0.122,0.078,south,3.5,No
2022/04/18,04:50,0.154,0.140,0.223,0.215,0.220,0.122,0.077,south-southwest,2.7,No
2022/04/18,05:00,0.153,0.140,0.223,0.215,0.219,0.121,0.078,south-southwest,2.7,No
2022/04/18,05:10,0.154,0.140,0.224,0.215,0.221,0.122,0.078,south-southwest,3.5,No
2022/04/18,05:20,0.154,0.140,0.224,0.215,0.220,0.121,0.079,south-southwest,3.5,No
2022/04/18,05:30,0.154,0.138,0.223,0.216,0.221,0.122,0.077,south,3.0,No
2022/04/18,05:40,0.154,0.141,0.224,0.217,0.221,0.121,0.078,south-southwest,3.7,No
2022/04/18,05:50,0.154,0.140,0.224,0.214,0.219,0.122,0.078,south-southwest,3.7,No
2022/04/18,06:00,0.155,0.139,0.224,0.215,0.219,0.122,0.077,south,3.7,No
2022/04/18,06:10,0.154,0.140,0.223,0.216,0.220,0.123,0.078,south-southwest,3.0,No
2022/04/18,06:20,0.155,0.140,0.224,0.216,0.220,0.122,0.078,south,2.1,No
2022/04/18,06:30,0.153,0.139,0.222,0.214,0.221,0.122,0.078,south,3.2,No
2022/04/18,06:40,0.155,0.139,0.224,0.215,0.219,0.122,0.078,south-southwest,2.5,No
2022/04/18,06:50,0.154,0.140,0.224,0.215,0.221,0.121,0.078,south,3.5,No
2022/04/18,07:00,0.153,0.138,0.222,0.215,0.218,0.121,0.078,south-southwest,3.3,No
2022/04/18,07:10,0.155,0.139,0.223,0.214,0.220,0.122,0.078,south,3.2,No
2022/04/18,07:20,0.154,0.139,0.223,0.217,0.218,0.122,0.078,south-southwest,3.3,No
2022/04/18,07:30,0.154,0.138,0.223,0.214,0.221,0.122,0.078,south,2.7,No
2022/04/18,07:40,0.154,0.139,0.222,0.216,0.220,0.122,0.078,south-southeast,2.4,No
2022/04/18,07:50,0.154,0.138,0.223,0.215,0.220,0.122,0.077,south,2.7,No
2022/04/18,08:00,0.154,0.139,0.221,0.215,0.220,0.122,0.078,south,3.0,No
2022/04/18,08:10,0.155,0.140,0.225,0.214,0.221,0.122,0.078,south-southeast,2.7,No
2022/04/18,08:20,0.153,0.139,0.222,0.216,0.219,0.122,0.078,south-southeast,3.3,No
2022/04/18,08:30,0.153,0.139,0.220,0.216,0.222,0.123,0.078,south-southeast,3.7,No
2022/04/18,08:40,0.154,0.138,0.223,0.213,0.220,0.121,0.077,south-southeast,3.8,No
2022/04/18,08:50,0.152,0.140,0.222,0.216,0.219,0.123,0.078,south-southeast,6.6,No
2022/04/18,09:00,0.154,0.139,0.220,0.214,0.220,0.121,0.077,south-southeast,6.3,No
2022/04/18,09:10,0.154,0.139,0.223,0.213,0.218,0.122,0.077,south-southeast,7.3,No
2022/04/18,09:20,0.153,0.139,0.223,0.217,0.221,0.122,0.078,south-southeast,7.9,No
2022/04/18,09:30,0.155,0.139,0.221,0.215,0.219,0.122,0.078,south-southeast,7.7,No
2022/04/18,09:40,0.154,0.139,0.221,0.214,0.218,0.122,0.077,south-southeast,9.9,No
2022/04/18,09:50,0.152,0.140,0.224,0.217,0.220,0.121,0.078,south-southeast,10.2,No
2022/04/18,10:00,0.154,0.139,0.222,0.216,0.218,0.122,0.077,south-southeast,11.4,No
2022/04/18,10:10,0.153,0.140,0.224,0.217,0.220,0.121,0.078,south-southeast,10.9,No
2022/04/18,10:20,0.153,0.139,0.224,0.217,0.218,0.121,0.077,south,12.0,No
2022/04/18,10:30,0.154,0.140,0.223,0.215,0.220,0.122,0.077,south-southeast,11.9,No
2022/04/18,10:40,0.153,0.138,0.224,0.216,0.221,0.122,0.077,south-southeast,10.9,No
2022/04/18,10:50,0.155,0.140,0.223,0.214,0.219,0.122,0.077,south-southeast,12.1,No
2022/04/18,11:00,0.153,0.140,0.224,0.217,0.222,0.121,0.078,south-southeast,11.1,No
2022/04/18,11:10,0.155,0.140,0.223,0.214,0.219,0.122,0.077,south-southeast,9.8,No
2022/04/18,11:20,0.154,0.140,0.223,0.216,0.220,0.122,0.077,south-southeast,10.3,No
2022/04/18,11:30,0.154,0.139,0.224,0.216,0.219,0.121,0.077,south-southeast,10.5,No
2022/04/18,11:40,0.155,0.141,0.222,0.216,0.218,0.122,0.077,south-southeast,10.2,No
2022/04/18,11:50,0.153,0.140,0.223,0.215,0.222,0.122,0.078,south-southeast,9.9,Yes
2022/04/18,12:00,0.154,0.140,0.224,0.216,0.220,0.122,0.076,south-southeast,10.2,Yes
2022/04/18,12:10,0.154,0.139,0.222,0.216,0.220,0.121,0.077,south,9.6,Yes
2022/04/18,12:20,0.153,0.139,0.224,0.216,0.220,0.122,0.077,south-southeast,9.9,Yes
2022/04/18,12:30,0.155,0.139,0.223,0.217,0.219,0.121,0.078,south-southeast,9.3,No
2022/04/18,12:40,0.154,0.139,0.224,0.214,0.222,0.121,0.077,south-southeast,9.8,No
2022/04/18,12:50,0.154,0.139,0.224,0.217,0.219,0.121,0.078,south-southeast,9.7,No
2022/04/18,13:00,0.154,0.139,0.223,0.216,0.220,0.122,0.077,south-southeast,7.8,Yes
2022/04/18,13:10,0.153,0.140,0.225,0.217,0.220,0.123,0.078,south-southeast,8.3,Yes
2022/04/18,13:20,0.154,0.139,0.223,0.215,0.220,0.122,0.078,south,8.8,Yes
2022/04/18,13:30,0.153,0.140,0.225,0.217,0.220,0.123,0.078,south-southeast,9.5,Yes
2022/04/18,13:40,0.155,0.139,0.225,0.216,0.220,0.121,0.078,south-southeast,8.8,Yes
2022/04/18,13:50,0.153,0.140,0.226,0.216,0.221,0.123,0.077,south,9.1,Yes
2022/04/18,14:00,0.155,0.139,0.224,0.217,0.219,0.122,0.078,south,9.4,Yes
2022/04/18,14:10,0.154,0.140,0.224,0.217,0.223,0.123,0.079,south,7.5,Yes
2022/04/18,14:20,0.156,0.140,0.225,0.218,0.220,0.123,0.079,south,6.6,Yes
2022/04/18,14:30,0.155,0.142,0.227,0.217,0.223,0.124,0.080,south,5.7,Yes
2022/04/18,14:40,0.156,0.140,0.224,0.216,0.221,0.124,0.081,south,5.4,Yes
2022/04/18,14:50,0.156,0.142,0.225,0.218,0.223,0.124,0.080,south,5.0,Yes
2022/04/18,15:00,0.156,0.141,0.225,0.218,0.221,0.124,0.080,south,4.8,Yes
2022/04/18,15:10,0.155,0.141,0.223,0.218,0.221,0.124,0.080,south,4.9,Yes
2022/04/18,15:20,0.156,0.142,0.224,0.218,0.221,0.124,0.079,south-southeast,4.7,Yes
2022/04/18,15:30,0.155,0.141,0.224,0.217,0.220,0.124,0.080,south-southeast,5.1,Yes
2022/04/18,15:40,0.156,0.142,0.226,0.217,0.221,0.124,0.079,south,4.7,Yes
2022/04/18,15:50,0.156,0.141,0.222,0.215,0.220,0.124,0.079,south,5.5,Yes
2022/04/18,16:00,0.155,0.141,0.224,0.216,0.221,0.123,0.079,south,5.4,Yes
2022/04/18,16:10,0.156,0.141,0.224,0.215,0.219,0.124,0.080,south-southwest,5.0,Yes
2022/04/18,16:20,0.156,0.140,0.222,0.215,0.221,0.123,0.080,south-southwest,5.0,Yes
2022/04/18,16:30,0.155,0.141,0.222,0.216,0.219,0.123,0.080,south-southwest,5.2,Yes
2022/04/18,16:40,0.154,0.141,0.220,0.213,0.218,0.124,0.079,south-southwest,4.1,Yes
2022/04/18,16:50,0.153,0.141,0.220,0.213,0.220,0.123,0.080,south,3.9,Yes
2022/04/18,17:00,0.154,0.140,0.220,0.212,0.216,0.121,0.080,south,4.4,Yes
2022/04/18,17:10,0.154,0.139,0.218,0.213,0.220,0.122,0.080,south-southwest,3.3,Yes
2022/04/18,17:20,0.154,0.140,0.218,0.212,0.217,0.122,0.079,-,CALM,Yes
2022/04/18,17:30,0.154,0.140,0.219,0.211,0.219,0.121,0.080,east-northeast,2.2,Yes
2022/04/18,17:40,0.155,0.140,0.217,0.210,0.217,0.121,0.080,north-northeast,1.6,Yes
2022/04/18,17:50,0.154,0.140,0.216,0.210,0.217,0.121,0.080,west-southwest,0.8,Yes
2022/04/18,18:00,0.152,0.140,0.218,0.209,0.218,0.122,0.080,north,2.9,Yes
2022/04/18,18:10,0.154,0.140,0.217,0.211,0.217,0.121,0.079,northeast,10.0,Yes
2022/04/18,18:20,0.152,0.140,0.216,0.210,0.219,0.121,0.080,northeast,6.6,Yes
2022/04/18,18:30,0.152,0.139,0.217,0.208,0.217,0.121,0.080,north-northeast,4.9,Yes
2022/04/18,18:40,0.152,0.139,0.216,0.210,0.217,0.121,0.080,north,1.9,Yes
2022/04/18,18:50,0.153,0.140,0.217,0.209,0.218,0.121,0.081,north-northwest,2.5,Yes
2022/04/18,19:00,0.152,0.140,0.217,0.210,0.217,0.122,0.080,north-northwest,3.5,Yes
2022/04/18,19:10,0.153,0.139,0.217,0.211,0.218,0.122,0.081,north-northwest,4.4,Yes
2022/04/18,19:20,0.153,0.140,0.218,0.209,0.218,0.122,0.081,north-northeast,3.3,Yes
2022/04/18,19:30,0.152,0.140,0.217,0.209,0.218,0.121,0.081,north,3.5,Yes
2022/04/18,19:40,0.154,0.141,0.217,0.210,0.219,0.121,0.080,north,3.5,Yes
2022/04/18,19:50,0.154,0.141,0.218,0.209,0.217,0.122,0.081,north-northwest,4.1,Yes
2022/04/18,20:00,0.152,0.140,0.217,0.210,0.220,0.121,0.081,north-northwest,4.1,Yes
2022/04/18,20:10,0.151,0.140,0.217,0.209,0.218,0.122,0.080,northwest,4.6,Yes
2022/04/18,20:20,0.152,0.139,0.216,0.210,0.219,0.122,0.081,northwest,3.3,Yes
2022/04/18,20:30,0.152,0.139,0.216,0.210,0.219,0.120,0.081,north-northwest,2.2,Yes
2022/04/18,20:40,0.151,0.140,0.216,0.208,0.217,0.120,0.080,north,2.4,Yes
2022/04/18,20:50,0.152,0.140,0.215,0.209,0.218,0.120,0.079,north,1.6,Yes
2022/04/18,21:00,0.149,0.141,0.216,0.209,0.217,0.121,0.079,north-northeast,2.1,Yes
2022/04/18,21:10,0.151,0.139,0.216,0.208,0.218,0.119,0.080,north-northeast,1.3,Yes
2022/04/18,21:20,0.151,0.138,0.216,0.209,0.218,0.121,0.080,northeast,1.8,Yes
2022/04/18,21:30,0.151,0.139,0.216,0.210,0.218,0.121,0.080,north,1.3,Yes
2022/04/18,21:40,0.151,0.139,0.215,0.208,0.217,0.119,0.080,north-northeast,1.6,Yes
2022/04/18,21:50,0.149,0.139,0.216,0.208,0.217,0.121,0.080,north-northeast,2.1,Yes
2022/04/18,22:00,0.150,0.140,0.216,0.209,0.217,0.120,0.079,north-northeast,2.9,Yes
2022/04/18,22:10,0.149,0.139,0.217,0.209,0.219,0.121,0.080,northeast,2.9,Yes
2022/04/18,22:20,0.151,0.140,0.217,0.209,0.217,0.120,0.081,east,2.2,Yes
2022/04/18,22:30,0.150,0.141,0.217,0.208,0.217,0.121,0.081,east-southeast,2.5,Yes
2022/04/18,22:40,0.151,0.141,0.216,0.209,0.219,0.122,0.081,east-southeast,1.9,Yes
2022/04/18,22:50,0.151,0.142,0.216,0.210,0.218,0.122,0.082,-,CALM,Yes
2022/04/18,23:00,0.152,0.142,0.217,0.210,0.220,0.123,0.082,south,1.6,Yes
2022/04/18,23:10,0.153,0.142,0.218,0.211,0.219,0.123,0.083,south-southeast,2.7,Yes
2022/04/18,23:20,0.153,0.142,0.217,0.210,0.220,0.123,0.083,southeast,2.5,Yes
2022/04/18,23:30,0.154,0.144,0.220,0.213,0.222,0.123,0.083,southeast,4.8,Yes
2022/04/18,23:40,0.155,0.145,0.221,0.213,0.221,0.125,0.085,east-southeast,5.5,Yes
2022/04/18,23:50,0.155,0.145,0.221,0.214,0.220,0.125,0.084,south,1.9,Yes
